Time,TemperatureF,DewpointF,PressureIn,WindDirection,WindDirectionDegrees,WindSpeedMPH,WindSpeedGustMPH,Humidity,HourlyPrecipIn,Conditions,Clouds,dailyrainin,SoftwareType,DateUTC
2013-03-28 00:00:00,40.0,-99.9,-100.00,SW,216,2.0,-999.0,-999,-99.99,,,-99.99,,2013-03-28 07:00:00,
2013-03-28 01:00:00,38.0,-99.9,-100.00,SW,232,2.0,-999.0,-999,-99.99,,,-99.99,,2013-03-28 08:00:00,
2013-03-28 02:00:00,38.0,-99.9,-100.00,South,187,2.0,-999.0,-999,-99.99,,,-99.99,,2013-03-28 09:00:00,
2013-03-28 03:00:00,39.0,-99.9,-100.00,SSE,166,2.0,-999.0,-999,-99.99,,,-99.99,,2013-03-28 10:00:00,
2013-03-28 04:00:00,39.0,-99.9,-100.00,WSW,240,2.0,-999.0,-999,-99.99,,,-99.99,,2013-03-28 11:00:00,
2013-03-28 05:00:00,38.0,-99.9,-100.00,SW,228,2.0,-999.0,-999,-99.99,,,-99.99,,2013-03-28 12:00:00,
2013-03-28 07:00:00,39.0,-99.9,-100.00,South,182,1.0,-999.0,-999,-99.99,,,-99.99,,2013-03-28 14:00:00,
2013-03-28 08:00:00,39.0,-99.9,-100.00,South,179,1.0,-999.0,-999,-99.99,,,-99.99,,2013-03-28 15:00:00,
2013-03-28 09:00:00,41.0,-99.9,-100.00,SSE,168,1.0,-999.0,-999,-99.99,,,-99.99,,2013-03-28 16:00:00,
2013-03-28 10:00:00,43.0,-99.9,-100.00,SSE,163,2.0,-999.0,-999,-99.99,,,-99.99,,2013-03-28 17:00:00,
2013-03-28 11:00:00,45.0,-99.9,-100.00,ESE,112,2.0,-999.0,-999,-99.99,,,-99.99,,2013-03-28 18:00:00,
2013-03-28 12:00:00,49.0,-99.9,-100.00,WSW,257,3.0,-999.0,-999,-99.99,,,-99.99,,2013-03-28 19:00:00,
2013-03-28 13:00:00,52.0,-99.9,-100.00,WSW,238,5.0,-999.0,-999,-99.99,,,-99.99,,2013-03-28 20:00:00,
2013-03-28 14:00:00,55.0,-99.9,-100.00,WSW,249,6.0,-999.0,-999,-99.99,,,-99.99,,2013-03-28 21:00:00,
2013-03-28 15:00:00,54.0,-99.9,-100.00,WSW,244,6.0,-999.0,-999,-99.99,,,-99.99,,2013-03-28 22:00:00,
2013-03-28 16:00:00,53.0,-99.9,-100.00,NNE,29,7.0,-999.0,-999,-99.99,,,-99.99,,2013-03-28 23:00:00,
2013-03-28 17:00:00,53.0,-99.9,-100.00,North,6,7.0,-999.0,-999,-99.99,,,-99.99,,2013-03-29 00:00:00,
2013-03-28 18:00:00,49.0,-99.9,-100.00,ENE,62,6.0,-999.0,-999,-99.99,,,-99.99,,2013-03-29 01:00:00,
2013-03-28 19:00:00,46.0,-99.9,-100.00,North,360,3.0,-999.0,-999,-99.99,,,-99.99,,2013-03-29 02:00:00,
2013-03-28 20:00:00,45.0,-99.9,-100.00,WSW,243,3.0,-999.0,-999,-99.99,,,-99.99,,2013-03-29 03:00:00,
2013-03-28 21:00:00,45.0,-99.9,-100.00,SW,226,3.0,-999.0,-999,-99.99,,,-99.99,,2013-03-29 04:00:00,
2013-03-28 22:00:00,44.0,-99.9,-100.00,West,276,2.0,-999.0,-999,-99.99,,,-99.99,,2013-03-29 05:00:00,
2013-03-28 23:00:00,43.0,-99.9,-100.00,WSW,237,1.0,-999.0,-999,-99.99,,,-99.99,,2013-03-29 06:00:00,